Weather History for Dansville, NY

Change the Weather History Date:

Sunday, June 30, 2013

  Actual Average Record
Temperature  
Mean Temperature 72 °F -  
Max Temperature 82 °F 79 °F 96 °F (1948)
Min Temperature 62 °F 56 °F 45 °F (1988)
Cooling Degree Days 7    
Growing Degree Days 22 (Base 50)    
Moisture  
Dew Point 64 °F    
Average Humidity 89    
Maximum Humidity 100    
Minimum Humidity 58    
Precipitation  
Precipitation 0.94 in - - ()
Sea Level Pressure  
Sea Level Pressure 29.81 in    
Wind  
Wind Speed 1 mph (ENE)    
Max Wind Speed 10 mph    
Max Gust Speed -    
Visibility 6 miles    
Events Fog , Rain    
Averages and records for this station are not official NWS values.
T = Trace of Precipitation, MM = Missing Value Source: NWS Daily Summary

Daily Weather History Graph

Daily Weather History Graph

Search for Another Location

Airport:

Trip Planner

Search our weather history database for the weather conditions in past years. The results will help you decide how hot, cold, wet, or windy it might be!

Date:

Astronomy

Jun. 30, 2013 Rise Set
Actual Time 5:36 AM EDT 8:52 PM EDT
Civil Twilight 5:01 AM EDT 9:27 PM EDT
Nautical Twilight 4:16 AM EDT 10:11 PM EDT
Astronomical Twilight 3:22 AM EDT 11:06 PM EDT
Moon 12:40 AM EDT (6/30) 1:59 PM EDT (6/30)
Length of Visible Light 16h 25m
Length of Day
15h 15m
Last Quarter, 45% of the Moon is Illuminated
Jun 30
Last Quarter
Jul 8
New
Jul 15
First Quarter
Jul 22
Full
Jul 29
Last Quarter

Hourly Weather History & Observations

Time (EDT) Temp. Heat Index Dew Point Humidity Pressure Visibility Wind Dir Wind Speed Gust Speed Precip Events Conditions
12:54 AM 66.0 °F - 64.0 °F 93% 29.74 in 10.0 mi Calm Calm - N/A   Partly Cloudy
1:11 AM 66.2 °F - 64.4 °F 94% 29.73 in 5.0 mi Calm Calm - N/A   Mostly Cloudy
1:25 AM 64.4 °F - 64.4 °F 100% 29.72 in 5.0 mi Calm Calm - N/A   Scattered Clouds
1:38 AM 66.2 °F - 64.4 °F 94% 29.73 in 6.0 mi Calm Calm - N/A   Partly Cloudy
1:51 AM 64.4 °F - 62.6 °F 94% 29.73 in 1.8 mi Calm Calm - N/A   Scattered Clouds
1:54 AM 64.0 °F - 62.1 °F 93% 29.75 in 0.8 mi Calm Calm - N/A   Mostly Cloudy
2:02 AM 64.4 °F - 62.6 °F 94% 29.74 in 0.2 mi Calm Calm - N/A Fog Fog
2:14 AM 64.4 °F - 64.4 °F 100% 29.74 in 1.0 mi ESE 3.5 mph - N/A   Mist
2:21 AM 64.4 °F - 62.6 °F 94% 29.74 in 3.0 mi Calm Calm - N/A   Overcast
2:38 AM 64.4 °F - 62.6 °F 94% 29.74 in 7.0 mi South 3.5 mph - N/A   Scattered Clouds
2:54 AM 63.0 °F - 62.1 °F 97% 29.75 in 8.0 mi Calm Calm - N/A   Partly Cloudy
3:38 AM 62.6 °F - 60.8 °F 94% 29.74 in 1.8 mi Calm Calm - N/A   Clear
3:41 AM 62.6 °F - 60.8 °F 94% 29.74 in 1.0 mi Calm Calm - N/A   Mist
3:54 AM 63.0 °F - 61.0 °F 93% 29.76 in 2.0 mi Calm Calm - N/A   Mostly Cloudy
4:06 AM 62.6 °F - 62.6 °F 100% 29.74 in 0.8 mi Calm Calm - N/A   Overcast
4:20 AM 62.6 °F - 62.6 °F 100% 29.75 in 2.5 mi Calm Calm - N/A   Overcast
4:27 AM 62.6 °F - 62.6 °F 100% 29.75 in 9.0 mi Calm Calm - N/A   Overcast
4:36 AM 62.6 °F - 62.6 °F 100% 29.76 in 1.8 mi Calm Calm - N/A   Overcast
4:44 AM 62.6 °F - 62.6 °F 100% 29.76 in 0.2 mi Calm Calm - N/A Fog Fog
4:54 AM 62.1 °F - 62.1 °F 100% 29.78 in 0.2 mi Calm Calm - N/A Fog Fog
5:05 AM 62.6 °F - 62.6 °F 100% 29.76 in 0.8 mi Calm Calm - N/A   Mist
5:10 AM 62.6 °F - 62.6 °F 100% 29.76 in 2.0 mi Calm Calm - N/A   Overcast
5:19 AM 62.6 °F - 62.6 °F 100% 29.76 in 3.0 mi Calm Calm - N/A   Overcast
5:38 AM 62.6 °F - 62.6 °F 100% 29.77 in 2.5 mi Calm Calm - N/A   Overcast
5:54 AM 63.0 °F - 62.1 °F 97% 29.79 in 3.0 mi Calm Calm - N/A   Overcast
6:54 AM 63.0 °F - 61.0 °F 93% 29.82 in 10.0 mi ESE 3.5 mph - N/A   Overcast
7:42 AM 62.6 °F - 60.8 °F 94% 29.82 in 10.0 mi ESE 3.5 mph - N/A   Overcast
7:54 AM 63.0 °F - 62.1 °F 97% 29.83 in 10.0 mi SE 3.5 mph - N/A   Overcast
8:05 AM 64.4 °F - 62.6 °F 94% 29.82 in 10.0 mi Calm Calm - N/A   Overcast
8:25 AM 64.4 °F - 62.6 °F 94% 29.82 in 10.0 mi Calm Calm - N/A   Overcast
8:54 AM 66.0 °F - 63.0 °F 90% 29.85 in 10.0 mi Calm Calm - N/A   Mostly Cloudy
9:05 AM 66.2 °F - 62.6 °F 88% 29.83 in 10.0 mi Calm Calm - N/A   Scattered Clouds
9:54 AM 71.1 °F - 64.0 °F 78% 29.85 in 10.0 mi ESE 3.5 mph - N/A   Partly Cloudy
10:54 AM 75.0 °F - 63.0 °F 66% 29.84 in 10.0 mi Variable 3.5 mph - N/A   Partly Cloudy
11:54 AM 75.9 °F - 63.0 °F 64% 29.84 in 10.0 mi Calm Calm - N/A   Scattered Clouds
12:54 PM 79.0 °F - 63.0 °F 58% 29.85 in 10.0 mi Variable 3.5 mph - N/A   Clear
1:54 PM 78.1 °F - 64.9 °F 64% 29.84 in 10.0 mi NW 5.8 mph - N/A   Mostly Cloudy
2:54 PM 79.0 °F - 64.0 °F 60% 29.84 in 10.0 mi NW 8.1 mph - N/A   Clear
3:54 PM 82.0 °F 84.1 °F 66.0 °F 58% 29.83 in 10.0 mi North 10.4 mph - N/A   Mostly Cloudy
4:54 PM 80.1 °F 81.7 °F 64.0 °F 58% 29.83 in 10.0 mi NNW 8.1 mph - N/A   Overcast
5:54 PM 77.0 °F - 64.9 °F 66% 29.86 in 10.0 mi East 4.6 mph - 0.00 in Rain Light Rain
6:18 PM 73.4 °F - 68.0 °F 83% 29.86 in 1.8 mi West 6.9 mph - 0.10 in Rain Heavy Rain
6:22 PM 71.6 °F - 68.0 °F 88% 29.86 in 0.8 mi Variable 3.5 mph - 0.18 in Rain Heavy Rain
6:34 PM 71.6 °F - 66.2 °F 83% 29.86 in 0.2 mi NW 3.5 mph - 0.63 in Fog , Rain Heavy Rain
6:44 PM 71.6 °F - 66.2 °F 83% 29.86 in 0.5 mi East 3.5 mph - 0.93 in Fog , Rain Heavy Rain
6:52 PM 71.6 °F - 68.0 °F 88% 29.87 in 2.0 mi Calm Calm - 0.94 in Rain Light Rain
6:54 PM 71.1 °F - 68.0 °F 90% 29.89 in 3.0 mi Calm Calm - 0.94 in Rain Light Rain
7:17 PM 71.6 °F - 69.8 °F 94% 29.87 in 10.0 mi Calm Calm - 0.00 in   Mostly Cloudy
7:27 PM 71.6 °F - 69.8 °F 94% 29.88 in 10.0 mi Calm Calm - 0.00 in   Mostly Cloudy
7:39 PM 71.6 °F - 69.8 °F 94% 29.88 in 9.0 mi Calm Calm - 0.00 in   Scattered Clouds
7:54 PM 72.0 °F - 69.1 °F 91% 29.90 in 9.0 mi NW 3.5 mph - 0.00 in   Partly Cloudy
8:39 PM 71.6 °F - 69.8 °F 94% 29.90 in 10.0 mi Calm Calm - N/A   Mostly Cloudy
8:54 PM 71.1 °F - 69.1 °F 93% 29.92 in 9.0 mi Calm Calm - N/A   Overcast
9:54 PM 70.0 °F - 66.9 °F 90% 29.93 in 10.0 mi Calm Calm - 0.00 in Rain Light Rain
10:54 PM 68.0 °F - 66.0 °F 93% 29.95 in 10.0 mi Calm Calm - 0.00 in   Clear
11:54 PM 66.9 °F - 64.9 °F 93% 29.96 in 8.0 mi Calm Calm - N/A   Clear